sat.trackr.live / text

‹ back to catalog

ONEWEB-0248

NORAD 48798 · 2021-045AH

PAYLOAD ACTIVE UNKNOWN

§ Identity

Operator
Country
UK
Launch date
2021-05-28
Launch site
VOSTO
Launch vehicle
Mass (kg)
RCS (m²)

Purposes: comms

External: N2YO · Heavens-Above · Gunter

§ Orbital elements

Epoch: 2026-05-24T20:08:01.658112Z

Period
109.46 min
Inclination
87.8998°
Eccentricity
0.0001395
Mean motion
13.15546736 rev/d
Perigee alt
1,200.7 km
Apogee alt
1,202.8 km
Semi-major
7,579.9 km
B*
-1.2132e-4
RAAN
263.8407°
Arg perigee
99.1831°
Mean anomaly
260.9457°
Rev number
24,134

§ Raw data

ONEWEB-02481 48798U 21045AH  26144.83890808 -.00000033  00000+0 -12132-3 0  99982 48798  87.8998 263.8407 0001395  99.1831 260.9457 13.15546736241344

JSON: /api/v1/satellites/48798 · /tle

For live sub-satellite position, see the globe view (requires WebGL).

§ Visibility from observer

Set your observer location to see the next 7 days of passes ≥ 10°. The values pass through the URL so the page stays shareable.

No JS? Fill the form by hand. The geolocation button needs JavaScript.